Lexington Weather

Lexington, Massachusetts, USA

35°F
10/30/2020 5:34am 
  • Lexington Conditions: Overcast
  • Temperature: 35.4°F / 1.9°CColder 1.1°F than last hour.
  • Dew Point: 34.7°FDecreased 1.1°Fsince last hour.
  • Relative Humidity: 97
  • Wind: Wind from N N 2 mph, 10-min avg: 2 mph, gust: 5 mph
  • Barometer: 29.76 in Steady
  • Visibility: 10 miles
  • Rain Today: 0.08 in
  •   
Southeast Middlesex County - Winter Weather Advisory
 - SEE ALL NEARBY ALERTS -

Regional Weather Roundup
for Boston / Norton, MA

        
000
ASUS41 KBOX 291304
RWRBOX

REGIONAL WEATHER ROUNDUP
NATIONAL WEATHER SERVICE BOSTON/NORTON MA
900 AM EDT THU OCT 29 2020

NOTE:  "FAIR" INDICATES FEW OR NO CLOUDS BELOW 12,000 FEET WITH NO 
SIGNIFICANT WEATHER AND/OR OBSTRUCTIONS TO VISIBILITY.

MAZALL-291400-
EASTERN MASSACHUSETTS
  
CITY           SKY/WX    TMP DP  RH WIND       PRES   REMARKS
BOSTON         CLOUDY    48  43  82 CALM      29.93S                  
BEVERLY        CLOUDY    46  44  93 CALM      29.92S                  
LAWRENCE       CLOUDY    45  43  93 CALM      29.93F                  
BEDFORD        CLOUDY    44  44 100 CALM      29.91F                  
BLUE HILL        N/A     44  44 100 CALM      29.91S                  
NORWOOD        CLOUDY    48  45  89 CALM      29.93S                  
MARSHFIELD     CLOUDY    48  48 100 CALM      29.93S                  
PLYMOUTH       LGT RAIN  47  45  93 CALM      29.93S                  
TAUNTON        LGT RAIN  48  45  89 CALM      29.93S FOG              
NEW BEDFORD    LGT RAIN  48  46  93 CALM      29.93S                  
$$

MAZALL-291400-
CAPE COD AND THE ISLANDS
  
CITY           SKY/WX    TMP DP  RH WIND       PRES   REMARKS
FALMOUTH       DRIZZLE   45  45 100 CALM      29.93S                  
HYANNIS        LGT RAIN  49  47  93 CALM      29.93R                  
CHATHAM        LGT RAIN  49  47  93 CALM      29.94R                  
PROVINCETOWN   PTSUNNY   51  43  74 CALM      29.94S                  
NANTUCKET      LGT RAIN  52  44  74 NE3       29.94S                  
MARTHAS VNYRD  LGT RAIN  50  48  93 CALM      29.94S                  
$$
 
MAZALL-291400-
CENTRAL AND WESTERN MASSACHUSETTS
  
CITY           SKY/WX    TMP DP  RH WIND       PRES   REMARKS
WORCESTER      CLOUDY    45  42  89 SW6       29.92R                  
FITCHBURG      CLOUDY    44  32  62 CALM      29.93S                  
ORANGE         CLOUDY    42  42 100 CALM      29.93R                  
SPRINGFIELD    LGT RAIN  46  46 100 CALM      29.92R FOG              
WESTFIELD      LGT RAIN  43  43 100 SW3       29.93R                  
NORTH ADAMS    CLOUDY    43  41  93 VRB3      29.90F                  
PITTSFIELD     CLOUDY    42  41  96 CALM      29.89R                  
$$
 
RIZALL-291400-
RHODE ISLAND
  
CITY           SKY/WX    TMP DP  RH WIND       PRES   REMARKS
PROVIDENCE     LGT RAIN  49  48  97 CALM      29.94S                  
NEWPORT        LGT RAIN  49  47  93 CALM      29.94R FOG              
BLOCK ISLAND   LGT RAIN  50  45  83 E7        29.94R                  
SMITHFIELD     LGT RAIN  46  46 100 CALM      29.94R FOG              
WESTERLY       LGT RAIN  48  46  93 N3        29.94R                  
$$
 
CTZALL-291400-
CONNECTICUT
  
CITY           SKY/WX    TMP DP  RH WIND       PRES   REMARKS
BRADLEY INTL   LGT RAIN  47  46  97 CALM      29.93R VSB 1/2          
HARTFORD       LGT RAIN  49  47  93 CALM      29.93R FOG              
BRIDGEPORT     LGT RAIN  50  47  89 NE8       29.91F                  
DANBURY        RAIN      48  44  86 E7        29.92S FOG              
GROTON         LGT RAIN  49  47  93 NE6       29.93R                  
NEW HAVEN      LGT RAIN  50  48  93 NE3       29.92S FOG              
CHESTER        LGT RAIN  48  46  93 CALM      29.93R                  
MERIDEN        LGT RAIN  48  46  93 CALM      29.93R                  
WILLIMANTIC    LGT RAIN  48  46  93 CALM      29.94R FOG              
OXFORD         LGT RAIN  46  45  96 E5        29.92R                  
$$

MEZ002-015-021-024-NHZ003-005-008-011-012-014-VTZ005-008-291400-
NORTHERN NEW ENGLAND
  
CITY           SKY/WX    TMP DP  RH WIND       PRES   REMARKS
PORTLAND ME    CLOUDY    38  38 100 CALM      29.92S FOG              
BANGOR ME      PTSUNNY   37  34  89 SW5       29.92R FOG              
CONCORD NH     CLOUDY    38  37  97 CALM      29.91F                  
MANCHESTER NH  CLOUDY    42  39  89 CALM      29.90F                  
NASHUA NH      CLOUDY    40  40 100 NW3       29.93F                  
PORTSMOUTH NH  NOT AVBL                                               
JAFFREY NH     CLOUDY    41  39  93 CALM      29.91R                  
KEENE NH       CLOUDY    41  41 100 CALM      29.92S                  
BURLINGTON VT  CLOUDY    42  38  85 CALM      29.90F                  
MT. WASHINGTON NOT AVBL                                               
$$

NYZ052-076-291400-
EASTERN NEW YORK
  
CITY           SKY/WX    TMP DP  RH WIND       PRES   REMARKS
ALBANY         CLOUDY    41  41 100 S6        29.91S FOG              
NEW YORK CITY  LGT RAIN  54  47  77 E14       29.88F                  
$$
 
ANZALL-291400-
MARINE OBSERVATIONS
  
STATION/POSITION TIME  TEMP    WIND        PRES    VSBY  WAVE
                       AIR SEA DIR/SP/G                  HT/PER
                 (UTC) (F)     (DEG/KT/KT) (MB)    (MI)  (FT/S)
BOSTON BUOY      1250   51 55  300/  4/  6 1013.7F         2/ 8
BUZZARDS BAY     1200           30/  7/  8 1014.5R
NANTUCKET SOUND  1250      60   30/  4/  6   N/A           1
MASS BAY-STELLWA 1204   50 56  310/  8/ 10 1012.6F  1 7/8  2/ 8
ISLE OF SHOALS   1200   46     270/ 10/ 11 1013.1S
S OF BLOCK IS    1226      62                N/A           3/ 6
$$

......................KEY.........................
  SKY/WX - SKY CONDITION/PRESENT WEATHER
  TMP    - TEMPERATURE IN FAHRENHEIT
  DWPT   - DEWPOINT IN FAHRENHEIT
  RH     - RELATIVE HUMIDITY IN PERCENT
  WIND   - DIRECTION AND SPEED IN MPH
  PRES   - MEAN SEA LEVEL PRESSURE IN INCHES OF HG
  WCI    - WIND CHILL INDEX
  VSB    - VISIBILITY IN MILES
  HX     - HEAT INDEX
  TC     - TEMPERATURE IN CELSIUS
  VRB    - VARIABLE WIND DIRECTION
  N/A    - NOT AVAILABLE
  
      

Other recent Regional Weather Roundups

Fri Oct 30, 5:04am

Fri Oct 30, 4:04am

Fri Oct 30, 3:04am

Fri Oct 30, 2:04am

Fri Oct 30, 1:04am

Fri Oct 30, 12:04am

Thu Oct 29, 11:04pm

Thu Oct 29, 10:04pm

Thu Oct 29, 9:04pm

Thu Oct 29, 8:04pm

Thu Oct 29, 7:04pm

Thu Oct 29, 6:04pm

Thu Oct 29, 5:05pm

Thu Oct 29, 4:05pm

Thu Oct 29, 3:05pm

Thu Oct 29, 2:04pm

Thu Oct 29, 1:04pm

Thu Oct 29, 12:04pm

Thu Oct 29, 11:04am

Thu Oct 29, 10:04am

Thu Oct 29, 8:04am

Thu Oct 29, 7:04am

Thu Oct 29, 6:04am

Thu Oct 29, 5:04am

Thu Oct 29, 4:04am

Thu Oct 29, 3:04am

Thu Oct 29, 2:04am

Thu Oct 29, 1:05am

Thu Oct 29, 12:04am

Wed Oct 28, 11:05pm

Wed Oct 28, 10:04pm

Wed Oct 28, 9:04pm

Wed Oct 28, 8:04pm

Wed Oct 28, 7:05pm

Wed Oct 28, 6:04pm

Wed Oct 28, 5:05pm

Wed Oct 28, 4:04pm

Wed Oct 28, 3:04pm

Wed Oct 28, 2:04pm

Wed Oct 28, 1:05pm

Wed Oct 28, 12:05pm

Wed Oct 28, 11:05am

Wed Oct 28, 10:04am

Wed Oct 28, 9:04am

Wed Oct 28, 8:04am

Wed Oct 28, 7:04am

Wed Oct 28, 6:04am

Wed Oct 28, 5:05am

Wed Oct 28, 4:04am

Wed Oct 28, 3:04am

Wed Oct 28, 2:04am

Wed Oct 28, 1:05am

Wed Oct 28, 12:04am

Tue Oct 27, 11:04pm

Tue Oct 27, 10:04pm

Tue Oct 27, 9:05pm

Tue Oct 27, 8:04pm

Tue Oct 27, 7:04pm

Tue Oct 27, 6:04pm

Tue Oct 27, 5:04pm

Tue Oct 27, 4:05pm

Tue Oct 27, 3:04pm

Tue Oct 27, 2:04pm

Tue Oct 27, 1:04pm

Tue Oct 27, 12:04pm

Tue Oct 27, 11:04am

Tue Oct 27, 10:04am

Tue Oct 27, 9:04am

Tue Oct 27, 8:04am

Tue Oct 27, 7:04am

Tue Oct 27, 6:04am

Tue Oct 27, 5:04am

Tue Oct 27, 4:04am

Tue Oct 27, 3:04am

Tue Oct 27, 2:05am

Tue Oct 27, 1:04am

Tue Oct 27, 12:04am

Mon Oct 26, 11:05pm

Mon Oct 26, 10:04pm

Mon Oct 26, 9:04pm

Mon Oct 26, 8:04pm

Mon Oct 26, 7:04pm

Mon Oct 26, 6:04pm

Mon Oct 26, 5:04pm

Mon Oct 26, 4:05pm

Mon Oct 26, 2:04pm

Mon Oct 26, 1:04pm

Mon Oct 26, 12:04pm

Mon Oct 26, 11:05am

Mon Oct 26, 10:04am

Mon Oct 26, 9:04am

Mon Oct 26, 8:04am

Mon Oct 26, 7:04am

Mon Oct 26, 6:04am

Mon Oct 26, 5:04am

Mon Oct 26, 4:04am

Mon Oct 26, 3:04am

Mon Oct 26, 2:04am

Mon Oct 26, 1:04am

Mon Oct 26, 12:04am

Sun Oct 25, 11:05pm

Sun Oct 25, 10:04pm

Sun Oct 25, 9:04pm

Sun Oct 25, 8:04pm

Sun Oct 25, 7:04pm

Sun Oct 25, 6:04pm

Sun Oct 25, 5:04pm

Sun Oct 25, 4:05pm

Sun Oct 25, 3:04pm

Sun Oct 25, 2:04pm

Sun Oct 25, 1:04pm

Sun Oct 25, 12:04pm

Sun Oct 25, 11:04am

Sun Oct 25, 10:04am

Sun Oct 25, 9:04am

Sun Oct 25, 8:04am

Sun Oct 25, 7:04am

Sun Oct 25, 6:04am

Sun Oct 25, 5:04am

Sun Oct 25, 4:04am

Sun Oct 25, 3:04am

Sun Oct 25, 2:04am

Sun Oct 25, 1:05am

Sun Oct 25, 12:04am

Sat Oct 24, 11:04pm

Sat Oct 24, 10:04pm

Sat Oct 24, 9:04pm

Sat Oct 24, 8:04pm

Sat Oct 24, 7:04pm

Sat Oct 24, 6:04pm

Sat Oct 24, 5:05pm

Sat Oct 24, 4:04pm

Sat Oct 24, 3:04pm

Sat Oct 24, 2:04pm

Sat Oct 24, 1:05pm

Sat Oct 24, 12:04pm

Sat Oct 24, 11:05am

Sat Oct 24, 10:05am

Sat Oct 24, 9:04am

Sat Oct 24, 8:04am

Sat Oct 24, 7:04am

Sat Oct 24, 6:04am

Sat Oct 24, 5:04am

Sat Oct 24, 4:04am

Sat Oct 24, 3:04am

Sat Oct 24, 2:04am

Sat Oct 24, 1:05am

Sat Oct 24, 12:04am

Fri Oct 23, 11:04pm

Fri Oct 23, 10:04pm

Fri Oct 23, 9:04pm

Fri Oct 23, 8:05pm

Fri Oct 23, 7:04pm

Fri Oct 23, 6:04pm

Fri Oct 23, 5:05pm

Fri Oct 23, 4:04pm

Fri Oct 23, 3:04pm

Fri Oct 23, 2:05pm

Fri Oct 23, 1:04pm

Fri Oct 23, 12:04pm

Fri Oct 23, 11:04am

Fri Oct 23, 10:04am

Fri Oct 23, 9:04am

Fri Oct 23, 8:04am

Fri Oct 23, 7:04am

Fri Oct 23, 6:04am

Meta data:

ID: ea16e9d6-864d-4840-8cba-05f005f4bba3
Link: https://api.weather.gov/products/ea16e9d6-864d-4840-8cba-05f005f4bba3